| time (UTC) | temp F | wind direction | speed MPH | gust MPH | rain 1hr in | rain 24hr in | rain mn in | humidity % | barometer mb |
| 20260901073402 | 75 | 139 | 0.0 | 2.0 | 0.00 | 0.00 | 0.00 | 88 | 1018.6 |
| 20260901072858 | 76 | 235 | 0.0 | 1.0 | 0.00 | 0.00 | 0.00 | 87 | 1018.5 |
| 20260901072357 | 75 | 242 | 0.0 | 2.0 | 0.00 | 0.00 | 0.00 | 87 | 1018.4 |
| 20260901071853 | 75 | 203 | 0.0 | 1.0 | 0.00 | 0.00 | 0.00 | 89 | 1018.5 |
| 20260901071351 | 75 | 149 | 1.0 | 2.0 | 0.00 | 0.00 | 0.00 | 89 | 1018.6 |
| 20260901070850 | 75 | 19 | 0.0 | 2.0 | 0.00 | 0.00 | 0.00 | 88 | 1018.6 |
| 20260901070346 | 75 | 29 | 1.0 | 1.0 | 0.00 | 0.00 | 0.00 | 88 | 1018.7 |
| 20260901065845 | 75 | 160 | 0.0 | 2.0 | 0.00 | 0.00 | 0.00 | 87 | 1018.5 |
| 20260901065340 | 75 | 159 | 1.0 | 2.0 | 0.00 | 0.00 | 0.00 | 88 | 1018.6 |
| 20260901064836 | 75 | 143 | 0.0 | 1.0 | 0.00 | 0.00 | 0.00 | 87 | 1018.9 |
| 20260901064332 | 76 | 69 | 1.0 | 2.0 | 0.00 | 0.00 | 0.00 | 87 | 1018.7 |
| 20260901063829 | 76 | 164 | 0.0 | 2.0 | 0.00 | 0.00 | 0.00 | 87 | 1018.9 |
| 20260901063325 | 76 | 123 | 0.0 | 1.0 | 0.00 | 0.00 | 0.00 | 85 | 1019.0 |
| 20260901062821 | 76 | 154 | 0.0 | 1.0 | 0.00 | 0.00 | 0.00 | 85 | 1018.8 |
| 20260901062317 | 77 | 154 | 0.0 | 2.0 | 0.00 | 0.00 | 0.00 | 84 | 1018.7 |
| 20260901061812 | 77 | 113 | 1.0 | 2.0 | 0.00 | 0.00 | 0.00 | 85 | 1018.6 |
| 20260901061307 | 77 | 89 | 1.0 | 1.0 | 0.00 | 0.00 | 0.00 | 84 | 1018.8 |
| 20260901060802 | 77 | 150 | 0.0 | 2.0 | 0.00 | 0.00 | 0.00 | 83 | 1018.7 |
| 20260901060258 | 77 | 135 | 0.0 | 3.0 | 0.00 | 0.00 | 0.00 | 82 | 1018.8 |
| 20260901055752 | 78 | 164 | 1.0 | 3.0 | 0.00 | 0.00 | 0.00 | 81 | 1018.8 |
| 20260901055249 | 77 | 147 | 0.0 | 1.0 | 0.00 | 0.00 | 0.00 | 81 | 1018.7 |
| 20260901054746 | 77 | 117 | 0.0 | 2.0 | 0.00 | 0.00 | 0.00 | 82 | 1018.9 |
| 20260901054242 | 77 | 147 | 0.0 | 2.0 | 0.00 | 0.00 | 0.00 | 82 | 1018.9 |
| 20260901053737 | 77 | 117 | 0.0 | 1.0 | 0.00 | 0.00 | 0.00 | 82 | 1018.6 |
| 20260901053232 | 78 | 149 | 0.0 | 2.0 | 0.00 | 0.00 | 0.00 | 81 | 1018.6 |
| 20260901052728 | 78 | 160 | 0.0 | 1.0 | 0.00 | 0.00 | 0.00 | 80 | 1018.6 |
| 20260901052224 | 78 | 151 | 1.0 | 2.0 | 0.00 | 0.00 | 0.00 | 80 | 1018.8 |
| 20260901051722 | 79 | 129 | 0.0 | 1.0 | 0.00 | 0.00 | 0.00 | 79 | 1018.7 |
| 20260901051217 | 79 | 180 | 0.0 | 3.0 | 0.00 | 0.00 | 0.00 | 79 | 1018.6 |
| 20260901050712 | 79 | 142 | 0.0 | 1.0 | 0.00 | 0.00 | 0.00 | 80 | 1018.6 |
| 20260901050207 | 79 | 124 | 0.0 | 1.0 | 0.00 | 0.00 | 0.00 | 78 | 1018.6 |
| 20260901045702 | 79 | 166 | 0.0 | 2.0 | 0.00 | 0.00 | 0.00 | 78 | 1018.5 |
| 20260901045157 | 79 | 284 | 0.0 | 2.0 | 0.00 | 0.00 | 0.00 | 79 | 1018.5 |
| 20260901044652 | 79 | 195 | 0.0 | 1.0 | 0.00 | 0.00 | 0.00 | 77 | 1018.8 |
| 20260901044148 | 80 | 180 | 0.0 | 1.0 | 0.00 | 0.00 | 0.00 | 77 | 1018.7 |
| 20260901043644 | 80 | 187 | 1.0 | 2.0 | 0.00 | 0.00 | 0.00 | 76 | 1018.8 |
| 20260901043140 | 80 | 240 | 0.0 | 2.0 | 0.00 | 0.00 | 0.00 | 74 | 1018.6 |
| 20260901042638 | 80 | 202 | 0.0 | 2.0 | 0.00 | 0.00 | 0.00 | 76 | 1018.8 |
| 20260901042134 | 81 | 89 | 0.0 | 2.0 | 0.00 | 0.00 | 0.00 | 71 | 1018.8 |
| 20260901041630 | 81 | 164 | 0.0 | 0.0 | 0.00 | 0.00 | 0.00 | 73 | 1018.9 |
| 20260901041124 | 82 | 180 | 0.0 | 2.0 | 0.00 | 0.00 | 0.00 | 72 | 1018.6 |
| 20260901040624 | 82 | 205 | 0.0 | 1.0 | 0.00 | 0.00 | 0.00 | 69 | 1018.7 |
| 20260901040123 | 83 | 278 | 2.0 | 2.0 | 0.00 | 0.00 | 0.00 | 69 | 1018.8 |
| 20260901035622 | 83 | 199 | 3.0 | 3.0 | 0.00 | 0.00 | 0.00 | 68 | 1018.9 |
| 20260901035121 | 83 | 160 | 1.0 | 3.0 | 0.00 | 0.00 | 0.00 | 68 | 1018.8 |
| 20260901034615 | 83 | 136 | 0.0 | 1.0 | 0.00 | 0.00 | 0.00 | 68 | 1018.7 |
| 20260901034109 | 84 | 154 | 0.0 | 2.0 | 0.00 | 0.00 | 0.00 | 69 | 1018.7 |
| 20260901033608 | 84 | 269 | 0.0 | 1.0 | 0.00 | 0.00 | 0.00 | 67 | 1018.7 |
| 20260901033103 | 84 | 122 | 0.0 | 3.0 | 0.00 | 0.00 | 0.00 | 67 | 1018.7 |
| 20260901032602 | 84 | 131 | 0.0 | 2.0 | 0.00 | 0.00 | 0.00 | 68 | 1018.7 |
| 20260901032057 | 83 | 169 | 0.0 | 2.0 | 0.00 | 0.00 | 0.00 | 69 | 1018.8 |
| 20260901031552 | 84 | 154 | 0.0 | 2.0 | 0.00 | 0.00 | 0.00 | 70 | 1018.6 |
| 20260901031048 | 83 | 166 | 0.0 | 0.0 | 0.00 | 0.00 | 0.00 | 69 | 1018.6 |
| 20260901030548 | 84 | 303 | 1.0 | 2.0 | 0.00 | 0.00 | 0.00 | 68 | 1018.4 |
| 20260901030043 | 83 | 180 | 0.0 | 2.0 | 0.00 | 0.00 | 0.00 | 68 | 1018.5 |
| 20260901025542 | 84 | 247 | 1.0 | 3.0 | 0.00 | 0.00 | 0.00 | 69 | 1018.5 |
| 20260901025037 | 84 | 180 | 0.0 | 1.0 | 0.00 | 0.00 | 0.00 | 68 | 1018.6 |
| 20260901024532 | 85 | 205 | 0.0 | 3.0 | 0.00 | 0.00 | 0.00 | 68 | 1018.6 |
| 20260901024030 | 85 | 119 | 0.0 | 2.0 | 0.00 | 0.00 | 0.00 | 66 | 1018.4 |
| 20260901023524 | 85 | 242 | 0.0 | 3.0 | 0.00 | 0.00 | 0.00 | 65 | 1018.5 |
| 20260901023020 | 85 | 150 | 2.0 | 3.0 | 0.00 | 0.00 | 0.00 | 65 | 1018.5 |
| 20260901022515 | 85 | 157 | 3.0 | 3.0 | 0.00 | 0.00 | 0.00 | 66 | 1018.5 |
| 20260901022010 | 85 | 173 | 0.0 | 2.0 | 0.00 | 0.00 | 0.00 | 67 | 1018.5 |
| 20260901021506 | 84 | 199 | 0.0 | 5.0 | 0.00 | 0.00 | 0.00 | 68 | 1018.5 |
| 20260901021001 | 83 | 153 | 1.0 | 3.0 | 0.00 | 0.00 | 0.00 | 71 | 1018.3 |
| 20260901020456 | 82 | 180 | 0.0 | 2.0 | 0.00 | 0.00 | 0.00 | 73 | 1018.0 |
| 20260901015954 | 82 | 186 | 0.0 | 2.0 | 0.00 | 0.00 | 0.00 | 72 | 1018.1 |
| 20260901015451 | 82 | 142 | 0.0 | 1.0 | 0.00 | 0.00 | 0.00 | 73 | 1018.4 |
| 20260901014951 | 82 | 170 | 2.0 | 2.0 | 0.00 | 0.00 | 0.00 | 72 | 1018.0 |
| 20260901014447 | 82 | 154 | 0.0 | 2.0 | 0.00 | 0.00 | 0.00 | 72 | 1018.0 |
| 20260901013942 | 82 | 173 | 0.0 | 1.0 | 0.00 | 0.00 | 0.00 | 73 | 1017.8 |
| 20260901013438 | 83 | 137 | 1.0 | 1.0 | 0.00 | 0.00 | 0.00 | 73 | 1017.9 |
| 20260901012934 | 83 | 198 | 0.0 | 1.0 | 0.00 | 0.00 | 0.00 | 73 | 1017.9 |
| 20260901012428 | 83 | 154 | 0.0 | 1.0 | 0.00 | 0.00 | 0.00 | 71 | 1017.7 |
| 20260901011923 | 84 | 230 | 0.0 | 1.0 | 0.00 | 0.00 | 0.00 | 70 | 1017.7 |
| 20260901011420 | 84 | 122 | 0.0 | 2.0 | 0.00 | 0.00 | 0.00 | 69 | 1017.7 |
| 20260901010917 | 84 | 108 | 0.0 | 1.0 | 0.00 | 0.00 | 0.00 | 71 | 1017.7 |
| 20260901010413 | 84 | 141 | 0.0 | 2.0 | 0.00 | 0.00 | 0.00 | 70 | 1017.7 |
| 20260901005911 | 85 | 164 | 0.0 | 2.0 | 0.00 | 0.00 | 0.00 | 70 | 1017.7 |
| 20260901005407 | 86 | 154 | 0.0 | 1.0 | 0.00 | 0.00 | 0.00 | 68 | 1017.6 |
| 20260901004902 | 85 | 124 | 0.0 | 1.0 | 0.00 | 0.00 | 0.00 | 68 | 1017.6 |
| 20260901004401 | 87 | 117 | 0.0 | 2.0 | 0.00 | 0.00 | 0.00 | 66 | 1017.6 |
| 20260901003856 | 87 | 113 | 0.0 | 1.0 | 0.00 | 0.00 | 0.00 | 65 | 1017.5 |
| 20260901003351 | 87 | 154 | 0.0 | 1.0 | 0.00 | 0.00 | 0.00 | 64 | 1017.4 |
| 20260901002849 | 87 | 218 | 0.0 | 1.0 | 0.00 | 0.00 | 0.00 | 64 | 1017.3 |
| 20260901002349 | 88 | 235 | 0.0 | 0.0 | 0.00 | 0.00 | 0.00 | 62 | 1017.3 |
| 20260901001844 | 89 | 235 | 0.0 | 0.0 | 0.00 | 0.00 | 0.00 | 61 | 1017.4 |
| 20260901001339 | 90 | 89 | 0.0 | 1.0 | 0.00 | 0.00 | 0.00 | 60 | 1017.3 |
| 20260901000835 | 91 | 257 | 0.0 | 1.0 | 0.00 | 0.00 | 0.00 | 57 | 1017.3 |
| 20260901000330 | 91 | 104 | 0.0 | 2.0 | 0.00 | 0.00 | 0.00 | 56 | 1017.4 |
| 20260831235828 | 92 | 305 | 0.0 | 1.0 | 0.00 | 0.00 | 0.00 | 55 | 1017.4 |
| 20260831235324 | 92 | 307 | 0.0 | 1.0 | 0.00 | 0.00 | 0.00 | 54 | 1017.6 |
| 20260831234824 | 94 | 229 | 0.0 | 1.0 | 0.00 | 0.00 | 0.00 | 54 | 1017.3 |
| 20260831234319 | 94 | 260 | 0.0 | 1.0 | 0.00 | 0.00 | 0.00 | 51 | 1017.3 |
| 20260831233814 | 95 | 37 | 0.0 | 1.0 | 0.00 | 0.00 | 0.00 | 49 | 1017.2 |
| 20260831233310 | 95 | 206 | 0.0 | 2.0 | 0.00 | 0.00 | 0.00 | 48 | 1017.5 |
| 20260831232805 | 95 | 284 | 0.0 | 3.0 | 0.00 | 0.00 | 0.00 | 46 | 1017.5 |
| 20260831232305 | 95 | 297 | 1.0 | 2.0 | 0.00 | 0.00 | 0.00 | 45 | 1017.6 |
| 20260831231756 | 96 | 199 | 0.0 | 2.0 | 0.00 | 0.00 | 0.00 | 45 | 1017.4 |
| 20260831231253 | 96 | 209 | 0.0 | 2.0 | 0.00 | 0.00 | 0.00 | 45 | 1017.5 |
| 20260831230748 | 97 | 228 | 0.0 | 2.0 | 0.00 | 0.00 | 0.00 | 44 | 1017.4 |
| 20260831230243 | 97 | 269 | 0.0 | 2.0 | 0.00 | 0.00 | 0.00 | 44 | 1017.4 |
| 20260831225742 | 97 | 315 | 0.0 | 4.0 | 0.00 | 0.00 | 0.00 | 45 | 1017.3 |
| 20260831225237 | 98 | 258 | 0.0 | 4.0 | 0.00 | 0.00 | 0.00 | 43 | 1017.3 |
| 20260831224732 | 100 | 240 | 0.0 | 3.0 | 0.00 | 0.00 | 0.00 | 41 | 1017.5 |
| 20260831224228 | 100 | 264 | 1.0 | 3.0 | 0.00 | 0.00 | 0.00 | 41 | 1017.3 |
| 20260831223723 | 102 | 252 | 1.0 | 3.0 | 0.00 | 0.00 | 0.00 | 39 | 1017.1 |
| 20260831223219 | 100 | 126 | 1.0 | 5.0 | 0.00 | 0.00 | 0.00 | 41 | 1017.2 |
| 20260831222715 | 100 | 263 | 3.0 | 5.0 | 0.00 | 0.00 | 0.00 | 39 | 1017.4 |
| 20260831222211 | 100 | 247 | 5.0 | 8.0 | 0.00 | 0.00 | 0.00 | 39 | 1017.3 |
| 20260831221706 | 101 | 267 | 2.0 | 4.0 | 0.00 | 0.00 | 0.00 | 39 | 1017.3 |
| 20260831221201 | 100 | 259 | 2.0 | 5.0 | 0.00 | 0.00 | 0.00 | 40 | 1017.4 |
| 20260831220656 | 102 | 234 | 2.0 | 5.0 | 0.00 | 0.00 | 0.00 | 40 | 1017.5 |
| 20260831220151 | 102 | 263 | 1.0 | 5.0 | 0.00 | 0.00 | 0.00 | 40 | 1017.4 |
| 20260831215646 | 101 | 309 | 0.0 | 4.0 | 0.00 | 0.00 | 0.00 | 40 | 1017.6 |
| 20260831215142 | 103 | 352 | 1.0 | 3.0 | 0.00 | 0.00 | 0.00 | 37 | 1017.5 |
| 20260831214639 | 101 | 284 | 2.0 | 3.0 | 0.00 | 0.00 | 0.00 | 40 | 1017.4 |
| 20260831214135 | 101 | 265 | 4.0 | 5.0 | 0.00 | 0.00 | 0.00 | 43 | 1017.5 |
| 20260831213632 | 99 | 167 | 2.0 | 5.0 | 0.00 | 0.00 | 0.00 | 43 | 1017.4 |
| 20260831213126 | 100 | 291 | 2.0 | 2.0 | 0.00 | 0.00 | 0.00 | 40 | 1017.5 |
| 20260831212623 | 100 | 185 | 3.0 | 5.0 | 0.00 | 0.00 | 0.00 | 40 | 1017.4 |
| 20260831212119 | 100 | 256 | 2.0 | 4.0 | 0.00 | 0.00 | 0.00 | 40 | 1017.3 |
| 20260831211612 | 102 | 113 | 3.0 | 8.0 | 0.00 | 0.00 | 0.00 | 37 | 1017.4 |
| 20260831211112 | 103 | 236 | 1.0 | 4.0 | 0.00 | 0.00 | 0.00 | 36 | 1017.3 |
| 20260831210607 | 105 | 254 | 2.0 | 3.0 | 0.00 | 0.00 | 0.00 | 37 | 1017.3 |
| 20260831210103 | 104 | 210 | 2.0 | 3.0 | 0.00 | 0.00 | 0.00 | 37 | 1017.6 |
| 20260831205602 | 107 | 163 | 0.0 | 3.0 | 0.00 | 0.00 | 0.00 | 38 | 1017.6 |
| 20260831205058 | 102 | 252 | 0.0 | 3.0 | 0.00 | 0.00 | 0.00 | 41 | 1017.6 |
| 20260831204553 | 100 | 311 | 1.0 | 3.0 | 0.00 | 0.00 | 0.00 | 42 | 1017.8 |
| 20260831204051 | 101 | 265 | 0.0 | 6.0 | 0.00 | 0.00 | 0.00 | 42 | 1017.6 |
| 20260831203546 | 103 | 276 | 3.0 | 4.0 | 0.00 | 0.00 | 0.00 | 40 | 1017.6 |
| 20260831203046 | 102 | 99 | 0.0 | 5.0 | 0.00 | 0.00 | 0.00 | 39 | 1017.7 |
| 20260831202544 | 103 | 159 | 3.0 | 5.0 | 0.00 | 0.00 | 0.00 | 39 | 1017.9 |
| 20260831202039 | 103 | 239 | 0.0 | 5.0 | 0.00 | 0.00 | 0.00 | 40 | 1017.7 |
| 20260831201537 | 100 | 268 | 5.0 | 6.0 | 0.00 | 0.00 | 0.00 | 43 | 1017.8 |
| 20260831201033 | 102 | 241 | 2.0 | 7.0 | 0.00 | 0.00 | 0.00 | 40 | 1017.7 |
| 20260831200529 | 105 | 142 | 1.0 | 3.0 | 0.00 | 0.00 | 0.00 | 38 | 1017.9 |
| 20260831200024 | 104 | 205 | 3.0 | 7.0 | 0.00 | 0.00 | 0.00 | 39 | 1018.1 |
| 20260831195519 | 103 | 254 | 2.0 | 4.0 | 0.00 | 0.00 | 0.00 | 40 | 1017.9 |
| 20260831195019 | 102 | 226 | 1.0 | 4.0 | 0.00 | 0.00 | 0.00 | 39 | 1018.0 |
| 20260831194514 | 102 | 29 | 0.0 | 6.0 | 0.00 | 0.00 | 0.00 | 40 | 1018.2 |
| 20260831194009 | 102 | 201 | 2.0 | 5.0 | 0.00 | 0.00 | 0.00 | 40 | 1018.2 |
| 20260831193504 | 101 | 202 | 1.0 | 3.0 | 0.00 | 0.00 | 0.00 | 43 | 1018.1 |
| 20260831192959 | 103 | 264 | 4.0 | 5.0 | 0.00 | 0.00 | 0.00 | 41 | 1018.3 |
| 20260831192454 | 102 | 226 | 3.0 | 6.0 | 0.00 | 0.00 | 0.00 | 41 | 1018.2 |
| 20260831191948 | 100 | 230 | 1.0 | 4.0 | 0.00 | 0.00 | 0.00 | 43 | 1018.4 |
| 20260831191445 | 100 | 191 | 0.0 | 6.0 | 0.00 | 0.00 | 0.00 | 41 | 1018.3 |
| 20260831190941 | 102 | 235 | 4.0 | 7.0 | 0.00 | 0.00 | 0.00 | 41 | 1018.7 |
| 20260831190436 | 102 | 152 | 2.0 | 3.0 | 0.00 | 0.00 | 0.00 | 43 | 1018.4 |
| 20260831185935 | 101 | 137 | 1.0 | 6.0 | 0.00 | 0.00 | 0.00 | 42 | 1018.5 |
| 20260831185431 | 98 | 17 | 0.0 | 6.0 | 0.00 | 0.00 | 0.00 | 43 | 1018.7 |
| 20260831184930 | 98 | 107 | 3.0 | 4.0 | 0.00 | 0.00 | 0.00 | 45 | 1018.7 |
| 20260831184425 | 97 | 184 | 2.0 | 5.0 | 0.00 | 0.00 | 0.00 | 47 | 1018.7 |
| 20260831183921 | 99 | 255 | 2.0 | 5.0 | 0.00 | 0.00 | 0.00 | 43 | 1019.0 |
| 20260831183420 | 99 | 218 | 2.0 | 3.0 | 0.00 | 0.00 | 0.00 | 44 | 1019.0 |
| 20260831182920 | 99 | 271 | 0.0 | 5.0 | 0.00 | 0.00 | 0.00 | 46 | 1019.0 |
| 20260831182415 | 98 | 205 | 2.0 | 5.0 | 0.00 | 0.00 | 0.00 | 46 | 1019.0 |
| 20260831181910 | 96 | 174 | 1.0 | 5.0 | 0.00 | 0.00 | 0.00 | 48 | 1019.3 |
| 20260831181405 | 96 | 204 | 3.0 | 9.0 | 0.00 | 0.00 | 0.00 | 45 | 1019.3 |
| 20260831180900 | 97 | 222 | 2.0 | 6.0 | 0.00 | 0.00 | 0.00 | 46 | 1019.3 |
| 20260831180354 | 97 | 240 | 1.0 | 12.0 | 0.00 | 0.00 | 0.00 | 47 | 1019.3 |
| 20260831175853 | 96 | 281 | 6.0 | 7.0 | 0.00 | 0.00 | 0.00 | 46 | 1019.6 |
| 20260831175350 | 96 | 232 | 3.0 | 4.0 | 0.00 | 0.00 | 0.00 | 47 | 1019.5 |
| 20260831174846 | 95 | 85 | 1.0 | 4.0 | 0.00 | 0.00 | 0.00 | 49 | 1019.5 |
| 20260831174341 | 96 | 167 | 3.0 | 9.0 | 0.00 | 0.00 | 0.00 | 47 | 1019.6 |
| 20260831173840 | 96 | 199 | 0.0 | 7.0 | 0.00 | 0.00 | 0.00 | 47 | 1019.7 |
| 20260831173335 | 95 | 166 | 1.0 | 9.0 | 0.00 | 0.00 | 0.00 | 48 | 1019.7 |
| 20260831172830 | 95 | 240 | 1.0 | 4.0 | 0.00 | 0.00 | 0.00 | 47 | 1019.4 |
| 20260831172326 | 96 | 140 | 2.0 | 5.0 | 0.00 | 0.00 | 0.00 | 46 | 1019.8 |
| 20260831171825 | 95 | 258 | 3.0 | 6.0 | 0.00 | 0.00 | 0.00 | 47 | 1019.9 |
| 20260831171321 | 95 | 267 | 6.0 | 8.0 | 0.00 | 0.00 | 0.00 | 47 | 1019.9 |
| 20260831170818 | 95 | 214 | 0.0 | 5.0 | 0.00 | 0.00 | 0.00 | 46 | 1019.8 |
| 20260831170314 | 94 | 187 | 1.0 | 6.0 | 0.00 | 0.00 | 0.00 | 48 | 1020.0 |
| 20260831165810 | 93 | 230 | 1.0 | 7.0 | 0.00 | 0.00 | 0.00 | 48 | 1020.1 |
| 20260831165306 | 95 | 315 | 2.0 | 6.0 | 0.00 | 0.00 | 0.00 | 48 | 1020.2 |
| 20260831164802 | 94 | 261 | 0.0 | 5.0 | 0.00 | 0.00 | 0.00 | 49 | 1019.8 |
| 20260831164258 | 94 | 147 | 0.0 | 5.0 | 0.00 | 0.00 | 0.00 | 49 | 1020.0 |
| 20260831163753 | 94 | 236 | 2.0 | 4.0 | 0.00 | 0.00 | 0.00 | 49 | 1020.1 |
| 20260831163249 | 94 | 147 | 2.0 | 5.0 | 0.00 | 0.00 | 0.00 | 49 | 1020.3 |
| 20260831162747 | 94 | 209 | 0.0 | 3.0 | 0.00 | 0.00 | 0.00 | 49 | 1020.2 |
| 20260831162242 | 92 | 245 | 2.0 | 5.0 | 0.00 | 0.00 | 0.00 | 50 | 1020.0 |
| 20260831161736 | 92 | 91 | 2.0 | 3.0 | 0.00 | 0.00 | 0.00 | 51 | 1020.3 |
| 20260831161233 | 92 | 178 | 2.0 | 9.0 | 0.00 | 0.00 | 0.00 | 50 | 1020.2 |
| 20260831160732 | 91 | 252 | 2.0 | 6.0 | 0.00 | 0.00 | 0.00 | 52 | 1020.4 |
| 20260831160228 | 91 | 243 | 2.0 | 5.0 | 0.00 | 0.00 | 0.00 | 51 | 1020.4 |
| 20260831155727 | 90 | 271 | 4.0 | 5.0 | 0.00 | 0.00 | 0.00 | 52 | 1020.4 |
| 20260831155223 | 90 | 249 | 3.0 | 5.0 | 0.00 | 0.00 | 0.00 | 52 | 1020.3 |
| 20260831154719 | 89 | 289 | 2.0 | 4.0 | 0.00 | 0.00 | 0.00 | 55 | 1020.2 |
| 20260831154215 | 89 | 235 | 4.0 | 6.0 | 0.00 | 0.00 | 0.00 | 52 | 1020.3 |
| 20260831153713 | 89 | 145 | 3.0 | 5.0 | 0.00 | 0.00 | 0.00 | 55 | 1020.1 |
| 20260831153209 | 88 | 161 | 3.0 | 5.0 | 0.00 | 0.00 | 0.00 | 53 | 1020.2 |
| 20260831152705 | 88 | 280 | 3.0 | 4.0 | 0.00 | 0.00 | 0.00 | 57 | 1020.3 |
| 20260831152200 | 87 | 262 | 3.0 | 3.0 | 0.00 | 0.00 | 0.00 | 55 | 1020.2 |
| 20260831151654 | 88 | 250 | 0.0 | 6.0 | 0.00 | 0.00 | 0.00 | 56 | 1020.3 |
| 20260831151149 | 88 | 232 | 0.0 | 4.0 | 0.00 | 0.00 | 0.00 | 57 | 1020.3 |
| 20260831150644 | 88 | 214 | 1.0 | 3.0 | 0.00 | 0.00 | 0.00 | 53 | 1020.2 |
| 20260831150139 | 87 | 349 | 0.0 | 5.0 | 0.00 | 0.00 | 0.00 | 55 | 1020.0 |
| 20260831145638 | 86 | 175 | 3.0 | 5.0 | 0.00 | 0.00 | 0.00 | 55 | 1020.0 |
| 20260831145135 | 86 | 234 | 1.0 | 8.0 | 0.00 | 0.00 | 0.00 | 56 | 1020.2 |
| 20260831144631 | 86 | 212 | 5.0 | 8.0 | 0.00 | 0.00 | 0.00 | 57 | 1020.1 |
| 20260831144126 | 86 | 263 | 1.0 | 9.0 | 0.00 | 0.00 | 0.00 | 57 | 1020.2 |
| 20260831143625 | 84 | 163 | 0.0 | 5.0 | 0.00 | 0.00 | 0.00 | 60 | 1020.0 |
| 20260831143121 | 84 | 250 | 2.0 | 5.0 | 0.00 | 0.00 | 0.00 | 63 | 1019.9 |
| 20260831142618 | 83 | 220 | 2.0 | 4.0 | 0.00 | 0.00 | 0.00 | 61 | 1019.9 |
| 20260831142113 | 83 | 305 | 0.0 | 3.0 | 0.00 | 0.00 | 0.00 | 61 | 1019.9 |
| 20260831141611 | 81 | 241 | 1.0 | 5.0 | 0.00 | 0.00 | 0.00 | 64 | 1019.9 |
| 20260831141107 | 80 | 296 | 0.0 | 4.0 | 0.00 | 0.00 | 0.00 | 66 | 1019.8 |
| 20260831140606 | 80 | 237 | 0.0 | 3.0 | 0.00 | 0.00 | 0.00 | 67 | 1019.8 |
| 20260831140101 | 79 | 115 | 2.0 | 4.0 | 0.00 | 0.00 | 0.00 | 67 | 1020.1 |
| 20260831135559 | 78 | 204 | 2.0 | 4.0 | 0.00 | 0.00 | 0.00 | 67 | 1019.9 |
| 20260831135055 | 77 | 258 | 1.0 | 2.0 | 0.00 | 0.00 | 0.00 | 70 | 1019.8 |
| 20260831134550 | 77 | 256 | 0.0 | 2.0 | 0.00 | 0.00 | 0.00 | 71 | 1019.9 |
| 20260831134045 | 77 | 317 | 0.0 | 2.0 | 0.00 | 0.00 | 0.00 | 72 | 1019.7 |
| 20260831133544 | 76 | 218 | 0.0 | 1.0 | 0.00 | 0.00 | 0.00 | 73 | 1019.9 |
| 20260831133039 | 76 | 255 | 0.0 | 1.0 | 0.00 | 0.00 | 0.00 | 75 | 1019.7 |
| 20260831132536 | 75 | 269 | 0.0 | 1.0 | 0.00 | 0.00 | 0.00 | 71 | 1019.7 |
| 20260831132034 | 75 | 119 | 1.0 | 2.0 | 0.00 | 0.00 | 0.00 | 74 | 1019.8 |
| 20260831131529 | 74 | 272 | 1.0 | 2.0 | 0.00 | 0.00 | 0.00 | 76 | 1019.6 |
| 20260831131025 | 74 | 89 | 0.0 | 4.0 | 0.00 | 0.00 | 0.00 | 77 | 1019.6 |
| 20260831130520 | 72 | 180 | 0.0 | 2.0 | 0.00 | 0.00 | 0.00 | 82 | 1019.6 |
| 20260831130016 | 71 | 89 | 0.0 | 3.0 | 0.00 | 0.00 | 0.00 | 83 | 1019.8 |
| 20260831125509 | 70 | 129 | 0.0 | 2.0 | 0.00 | 0.00 | 0.00 | 86 | 1019.6 |
| 20260831125005 | 70 | 116 | 0.0 | 2.0 | 0.00 | 0.00 | 0.00 | 88 | 1019.7 |
| 20260831124501 | 69 | 162 | 0.0 | 2.0 | 0.00 | 0.00 | 0.00 | 89 | 1019.4 |
| 20260831123956 | 69 | 124 | 0.0 | 2.0 | 0.00 | 0.00 | 0.00 | 90 | 1019.4 |
| 20260831123455 | 69 | 138 | 1.0 | 2.0 | 0.00 | 0.00 | 0.00 | 90 | 1019.3 |
| 20260831122949 | 68 | 140 | 1.0 | 2.0 | 0.00 | 0.00 | 0.00 | 90 | 1019.5 |
| 20260831122445 | 68 | 154 | 0.0 | 2.0 | 0.00 | 0.00 | 0.00 | 90 | 1019.3 |
| 20260831121940 | 68 | 139 | 1.0 | 2.0 | 0.00 | 0.00 | 0.00 | 89 | 1019.1 |
| 20260831121436 | 68 | 134 | 2.0 | 2.0 | 0.00 | 0.00 | 0.00 | 89 | 1019.1 |
| 20260831120931 | 68 | 129 | 2.0 | 2.0 | 0.00 | 0.00 | 0.00 | 89 | 1019.0 |
| 20260831120426 | 68 | 139 | 0.0 | 2.0 | 0.00 | 0.00 | 0.00 | 89 | 1019.0 |
| 20260831115926 | 68 | 102 | 0.0 | 2.0 | 0.00 | 0.00 | 0.00 | 89 | 1019.1 |
| 20260831115422 | 68 | 107 | 1.0 | 2.0 | 0.00 | 0.00 | 0.00 | 89 | 1019.0 |
| 20260831114922 | 69 | 95 | 0.0 | 3.0 | 0.00 | 0.00 | 0.00 | 88 | 1019.2 |
| 20260831114420 | 69 | 164 | 0.0 | 2.0 | 0.00 | 0.00 | 0.00 | 87 | 1019.0 |
| 20260831113916 | 69 | 110 | 0.0 | 3.0 | 0.00 | 0.00 | 0.00 | 86 | 1019.1 |
| 20260831113416 | 70 | 129 | 0.0 | 2.0 | 0.00 | 0.00 | 0.00 | 84 | 1019.2 |
| 20260831112911 | 71 | 128 | 1.0 | 2.0 | 0.00 | 0.00 | 0.00 | 82 | 1019.1 |
| 20260831112406 | 70 | 100 | 0.0 | 3.0 | 0.00 | 0.00 | 0.00 | 79 | 1018.9 |
| 20260831111901 | 69 | 121 | 2.0 | 3.0 | 0.00 | 0.00 | 0.00 | 83 | 1019.0 |
| 20260831111357 | 69 | 132 | 1.0 | 2.0 | 0.00 | 0.00 | 0.00 | 85 | 1018.9 |
| 20260831110852 | 68 | 106 | 1.0 | 2.0 | 0.00 | 0.00 | 0.00 | 87 | 1018.9 |
| 20260831110352 | 68 | 128 | 1.0 | 3.0 | 0.00 | 0.00 | 0.00 | 89 | 1018.9 |
| 20260831105851 | 68 | 135 | 0.0 | 2.0 | 0.00 | 0.00 | 0.00 | 89 | 1018.8 |
| 20260831105347 | 68 | 99 | 2.0 | 2.0 | 0.00 | 0.00 | 0.00 | 89 | 1018.8 |
| 20260831104842 | 68 | 103 | 0.0 | 2.0 | 0.00 | 0.00 | 0.00 | 88 | 1018.8 |
| 20260831104338 | 69 | 117 | 1.0 | 3.0 | 0.00 | 0.00 | 0.00 | 88 | 1018.8 |
| 20260831103838 | 69 | 164 | 0.0 | 2.0 | 0.00 | 0.00 | 0.00 | 87 | 1019.0 |
| 20260831103334 | 68 | 119 | 0.0 | 2.0 | 0.00 | 0.00 | 0.00 | 86 | 1018.8 |
| 20260831102829 | 68 | 124 | 0.0 | 2.0 | 0.00 | 0.00 | 0.00 | 89 | 1018.8 |
| 20260831102324 | 68 | 61 | 0.0 | 2.0 | 0.00 | 0.00 | 0.00 | 90 | 1018.9 |
| 20260831101820 | 68 | 143 | 0.0 | 2.0 | 0.00 | 0.00 | 0.00 | 90 | 1018.9 |
| 20260831101314 | 68 | 55 | 2.0 | 3.0 | 0.00 | 0.00 | 0.00 | 90 | 1018.8 |
| 20260831100810 | 67 | 131 | 1.0 | 2.0 | 0.00 | 0.00 | 0.00 | 90 | 1018.8 |
| 20260831100306 | 67 | 126 | 0.0 | 2.0 | 0.00 | 0.00 | 0.00 | 90 | 1018.8 |
| 20260831095805 | 67 | 99 | 0.0 | 1.0 | 0.00 | 0.00 | 0.00 | 89 | 1018.7 |
| 20260831095300 | 67 | 69 | 0.0 | 3.0 | 0.00 | 0.00 | 0.00 | 89 | 1018.8 |
| 20260831094755 | 68 | 135 | 0.0 | 2.0 | 0.00 | 0.00 | 0.00 | 89 | 1018.9 |
| 20260831094250 | 68 | 124 | 1.0 | 2.0 | 0.00 | 0.00 | 0.00 | 89 | 1018.9 |
| 20260831093747 | 68 | 37 | 0.0 | 3.0 | 0.00 | 0.00 | 0.00 | 88 | 1019.0 |
| 20260831093246 | 68 | 60 | 1.0 | 2.0 | 0.00 | 0.00 | 0.00 | 88 | 1018.7 |
| 20260831092743 | 68 | 93 | 1.0 | 2.0 | 0.00 | 0.00 | 0.00 | 88 | 1018.3 |
| 20260831092238 | 68 | 141 | 2.0 | 2.0 | 0.00 | 0.00 | 0.00 | 88 | 1018.8 |
| 20260831091737 | 68 | 81 | 1.0 | 3.0 | 0.00 | 0.00 | 0.00 | 89 | 1018.6 |
| 20260831091233 | 68 | 93 | 0.0 | 2.0 | 0.00 | 0.00 | 0.00 | 88 | 1018.7 |
| 20260831090729 | 68 | 114 | 1.0 | 2.0 | 0.00 | 0.00 | 0.00 | 88 | 1018.5 |
| 20260831090220 | 68 | 150 | 0.0 | 2.0 | 0.00 | 0.00 | 0.00 | 88 | 1018.4 |
| 20260831085715 | 68 | 147 | 0.0 | 2.0 | 0.00 | 0.00 | 0.00 | 88 | 1018.5 |
| 20260831085210 | 68 | 104 | 0.0 | 2.0 | 0.00 | 0.00 | 0.00 | 88 | 1018.5 |
| 20260831084705 | 68 | 80 | 1.0 | 2.0 | 0.00 | 0.00 | 0.00 | 88 | 1018.4 |
| 20260831084201 | 68 | 245 | 0.0 | 3.0 | 0.00 | 0.00 | 0.00 | 88 | 1018.5 |
| 20260831083657 | 68 | 51 | 2.0 | 3.0 | 0.00 | 0.00 | 0.00 | 88 | 1018.3 |
| 20260831083152 | 68 | 89 | 0.0 | 2.0 | 0.00 | 0.00 | 0.00 | 87 | 1018.1 |
| 20260831082650 | 69 | 100 | 0.0 | 2.0 | 0.00 | 0.00 | 0.00 | 87 | 1018.2 |
| 20260831082146 | 69 | 141 | 0.0 | 2.0 | 0.00 | 0.00 | 0.00 | 86 | 1018.2 |
| 20260831081641 | 69 | 139 | 2.0 | 3.0 | 0.00 | 0.00 | 0.00 | 87 | 1018.0 |
| 20260831081137 | 69 | 142 | 0.0 | 3.0 | 0.00 | 0.00 | 0.00 | 86 | 1018.2 |
| 20260831080633 | 69 | 149 | 0.0 | 2.0 | 0.00 | 0.00 | 0.00 | 86 | 1017.9 |
| 20260831080127 | 69 | 110 | 1.0 | 2.0 | 0.00 | 0.00 | 0.00 | 86 | 1018.2 |
| 20260831075624 | 69 | 142 | 0.0 | 2.0 | 0.00 | 0.00 | 0.00 | 85 | 1018.1 |
| 20260831075119 | 69 | 129 | 0.0 | 2.0 | 0.00 | 0.00 | 0.00 | 85 | 1018.1 |
| 20260831074618 | 70 | 124 | 0.0 | 2.0 | 0.00 | 0.00 | 0.00 | 85 | 1018.1 |
| 20260831074113 | 70 | 126 | 1.0 | 2.0 | 0.00 | 0.00 | 0.00 | 85 | 1018.2 |
| 20260831073608 | 70 | 95 | 1.0 | 2.0 | 0.00 | 0.00 | 0.00 | 85 | 1018.1 |